TimeCDT,TemperatureF,Dew PointF,Humidity,Sea Level PressureIn,VisibilityMPH,Wind Direction,Wind SpeedMPH,Gust SpeedMPH,PrecipitationIn,Events,Conditions,WindDirDegrees,DateUTC
12:12 AM,36.3,21.7,56,30.17,10.0,NNW,5.8,-,N/A,,Clear,340,2013-04-05 05:12:00
12:33 AM,35.8,21.2,55,30.17,10.0,NNW,6.9,-,N/A,,Clear,340,2013-04-05 05:33:00
12:53 AM,35.4,21.2,56,30.18,10.0,North,5.8,-,N/A,,Clear,350,2013-04-05 05:53:00
1:12 AM,35.2,21.0,56,30.18,10.0,North,6.9,-,N/A,,Clear,350,2013-04-05 06:12:00
1:33 AM,34.7,21.2,58,30.19,10.0,North,6.9,-,N/A,,Clear,360,2013-04-05 06:33:00
1:52 AM,34.0,21.2,60,30.19,10.0,North,8.1,-,N/A,,Clear,360,2013-04-05 06:52:00
2:12 AM,33.3,21.2,61,30.19,10.0,North,6.9,-,N/A,,Clear,360,2013-04-05 07:12:00
2:33 AM,33.3,21.0,61,30.19,10.0,North,6.9,-,N/A,,Clear,360,2013-04-05 07:33:00
2:52 AM,32.9,20.7,61,30.19,10.0,North,5.8,-,N/A,,Clear,360,2013-04-05 07:52:00
3:13 AM,32.0,20.3,62,30.19,10.0,North,5.8,-,N/A,,Clear,360,2013-04-05 08:13:00
3:32 AM,32.0,20.1,62,30.20,10.0,North,4.6,-,N/A,,Clear,360,2013-04-05 08:32:00
3:52 AM,32.0,19.4,60,30.20,10.0,North,5.8,-,N/A,,Clear,350,2013-04-05 08:52:00
4:13 AM,31.5,19.2,61,30.22,10.0,North,3.5,-,N/A,,Clear,350,2013-04-05 09:13:00
4:32 AM,31.1,18.9,61,30.22,10.0,North,4.6,-,N/A,,Clear,350,2013-04-05 09:32:00
4:53 AM,30.9,18.7,61,30.23,10.0,North,3.5,-,N/A,,Clear,350,2013-04-05 09:53:00
5:12 AM,30.7,18.3,60,30.23,10.0,North,3.5,-,N/A,,Clear,350,2013-04-05 10:12:00
5:32 AM,30.4,18.1,60,30.23,10.0,North,3.5,-,N/A,,Clear,10,2013-04-05 10:32:00
5:53 AM,30.2,18.1,61,30.24,10.0,North,3.5,-,N/A,,Clear,350,2013-04-05 10:53:00
6:12 AM,29.8,18.1,62,30.23,10.0,North,3.5,-,N/A,,Clear,10,2013-04-05 11:12:00
6:32 AM,30.2,17.4,59,30.23,10.0,NNE,4.6,-,N/A,,Clear,20,2013-04-05 11:32:00
6:52 AM,29.7,17.6,61,30.23,10.0,North,4.6,-,N/A,,Clear,10,2013-04-05 11:52:00
7:12 AM,29.8,17.1,59,30.24,10.0,NNE,3.5,-,N/A,,Clear,20,2013-04-05 12:12:00
7:33 AM,30.7,17.1,57,30.24,10.0,NNE,3.5,-,N/A,,Clear,30,2013-04-05 12:33:00
7:52 AM,31.5,16.9,55,30.24,10.0,NE,3.5,-,N/A,,Clear,40,2013-04-05 12:52:00
8:12 AM,32.0,16.7,53,30.24,10.0,NE,5.8,-,N/A,,Clear,50,2013-04-05 13:12:00
8:33 AM,32.7,17.1,53,30.24,10.0,ENE,5.8,-,N/A,,Clear,70,2013-04-05 13:33:00
8:52 AM,33.4,17.2,52,30.24,10.0,East,5.8,-,N/A,,Clear,90,2013-04-05 13:52:00
9:13 AM,34.2,18.0,52,30.23,10.0,ESE,5.8,-,N/A,,Clear,110,2013-04-05 14:13:00
9:33 AM,34.7,18.5,52,30.22,10.0,East,6.9,-,N/A,,Clear,80,2013-04-05 14:33:00
9:52 AM,35.8,19.0,51,30.23,10.0,ESE,4.6,-,N/A,,Clear,110,2013-04-05 14:52:00
10:13 AM,36.5,19.0,49,30.22,10.0,SE,5.8,-,N/A,,Clear,130,2013-04-05 15:13:00
10:32 AM,37.4,19.4,48,30.22,10.0,SE,4.6,-,N/A,,Clear,140,2013-04-05 15:32:00
10:52 AM,38.3,19.2,46,30.22,10.0,SSE,9.2,-,N/A,,Clear,150,2013-04-05 15:52:00
11:13 AM,39.2,19.8,46,30.24,10.0,SSE,5.8,-,N/A,,Clear,160,2013-04-05 16:13:00
11:32 AM,39.4,19.0,44,30.23,10.0,South,5.8,-,N/A,,Clear,170,2013-04-05 16:32:00
11:53 AM,39.7,19.2,44,30.22,10.0,SSE,6.9,-,N/A,,Clear,150,2013-04-05 16:53:00
12:12 PM,40.3,19.0,43,30.20,10.0,SE,4.6,-,N/A,,Clear,140,2013-04-05 17:12:00
12:32 PM,41.2,19.8,42,30.19,10.0,SSE,6.9,-,N/A,,Clear,160,2013-04-05 17:32:00
12:53 PM,42.1,17.8,38,30.18,10.0,SE,5.8,-,N/A,,Scattered Clouds,130,2013-04-05 17:53:00
1:12 PM,43.3,19.0,38,30.15,10.0,SE,11.5,-,N/A,,Scattered Clouds,140,2013-04-05 18:12:00
1:33 PM,43.3,17.8,36,30.15,10.0,SSE,6.9,-,N/A,,Scattered Clouds,160,2013-04-05 18:33:00
1:52 PM,43.0,19.2,39,30.16,10.0,SSE,5.8,-,N/A,,Mostly Cloudy,160,2013-04-05 18:52:00
2:13 PM,42.8,18.7,38,30.16,10.0,SSE,3.5,-,N/A,,Scattered Clouds,160,2013-04-05 19:13:00
2:33 PM,42.4,19.6,40,30.16,10.0,South,9.2,-,N/A,,Scattered Clouds,180,2013-04-05 19:33:00
2:52 PM,42.3,20.3,42,30.15,10.0,South,8.1,-,N/A,,Clear,170,2013-04-05 19:52:00
3:13 PM,42.3,21.0,43,30.14,10.0,SE,9.2,-,N/A,,Scattered Clouds,140,2013-04-05 20:13:00
3:33 PM,40.6,26.2,57,30.13,7.0,South,5.8,9.2,N/A,,Mostly Cloudy,170,2013-04-05 20:33:00
3:52 PM,40.3,25.9,56,30.13,10.0,SE,5.8,-,N/A,,Overcast,130,2013-04-05 20:52:00
4:12 PM,38.7,29.8,71,30.12,7.0,SSW,8.1,-,N/A,,Light Drizzle,210,2013-04-05 21:12:00
4:32 PM,35.6,32.0,87,30.10,3.0,SSE,6.9,-,N/A,Rain,Light Rain,160,2013-04-05 21:32:00
4:53 PM,34.7,32.5,92,30.10,3.0,SSE,8.1,-,N/A,,Overcast,150,2013-04-05 21:53:00
5:13 PM,33.8,32.9,96,30.07,1.8,SE,5.8,-,N/A,Snow,Light Snow,130,2013-04-05 22:13:00
5:32 PM,33.6,32.9,97,30.09,1.0,South,4.6,-,0.02,Snow,Light Snow,180,2013-04-05 22:32:00
5:53 PM,33.6,32.9,97,30.07,1.5,SSE,6.9,-,0.03,Snow,Light Snow,150,2013-04-05 22:53:00
6:13 PM,33.4,32.9,98,30.06,4.0,SE,4.6,-,N/A,Rain,Light Rain,130,2013-04-05 23:13:00
6:32 PM,33.8,33.4,99,30.05,7.0,ESE,5.8,-,0.01,,Overcast,120,2013-04-05 23:32:00
6:53 PM,34.2,33.8,99,30.05,10.0,SE,5.8,-,0.01,,Overcast,130,2013-04-05 23:53:00
7:12 PM,34.2,33.8,99,30.04,7.0,SE,5.8,-,N/A,Snow,Light Snow,130,2013-04-06 00:12:00
7:32 PM,34.3,34.0,99,30.03,10.0,ESE,8.1,-,N/A,,Mostly Cloudy,120,2013-04-06 00:32:00
7:53 PM,34.7,34.2,98,30.02,10.0,SE,8.1,-,N/A,Rain,Light Rain,130,2013-04-06 00:53:00
8:12 PM,34.7,34.2,98,30.03,10.0,ESE,9.2,-,N/A,,Overcast,120,2013-04-06 01:12:00
8:33 PM,35.1,34.3,97,30.02,10.0,ESE,6.9,-,N/A,,Mostly Cloudy,120,2013-04-06 01:33:00
8:53 PM,35.6,33.8,93,30.02,10.0,ESE,8.1,-,N/A,,Mostly Cloudy,110,2013-04-06 01:53:00
9:12 PM,35.6,33.4,92,30.02,10.0,ESE,5.8,-,N/A,,Mostly Cloudy,110,2013-04-06 02:12:00
9:33 PM,35.6,33.1,91,30.01,10.0,ESE,6.9,-,N/A,,Overcast,120,2013-04-06 02:33:00
9:52 PM,35.6,32.9,90,30.00,10.0,ESE,9.2,-,N/A,,Overcast,120,2013-04-06 02:52:00
10:12 PM,35.8,32.7,89,29.98,10.0,ESE,9.2,-,N/A,,Mostly Cloudy,120,2013-04-06 03:12:00
10:32 PM,36.1,32.4,86,29.97,10.0,ESE,8.1,-,N/A,,Scattered Clouds,120,2013-04-06 03:32:00
10:52 PM,36.5,32.4,85,29.95,10.0,SE,8.1,-,N/A,,Mostly Cloudy,130,2013-04-06 03:52:00
11:13 PM,36.7,32.5,85,29.94,10.0,SE,8.1,-,N/A,,Mostly Cloudy,130,2013-04-06 04:13:00
11:33 PM,36.7,32.4,84,29.92,10.0,ESE,12.7,17.3,N/A,,Overcast,120,2013-04-06 04:33:00
11:52 PM,36.7,32.2,84,29.91,10.0,SE,9.2,18.4,N/A,,Mostly Cloudy,130,2013-04-06 04:52:00